Overview Statistics Trail Chart Weather Telemetry Raw packets
 

This is the latest recevied weather packets stored in our database for station/object HB9BB-10. If no packets are shown the sender has not sent any weather packets the latest 10 day(s).

<< 5 6 7 8 9 10 11 >>
Time Temp. Humidity Pressure Rain* Wind** Luminosity Snow
1788426505 25° C 31% 1041 hPa - - - -
1788425125 24.44° C 31% 1040.5 hPa - - - -
1788423745 23.89° C 31% 1040.4 hPa - - - -
1788422365 23.33° C 31% 1040.5 hPa - - - -
1788420984 22.78° C 31% 1040.6 hPa - - - -
1788419604 22.22° C 31% 1040.8 hPa - - - -
1788418224 22.22° C 31% 1040.9 hPa - - - -
1788416844 21.67° C 31% 1040.6 hPa - - - -
1788415464 21.11° C 31% 1040.4 hPa - - - -
1788414084 21.11° C 31% 1040.5 hPa - - - -
1788412703 21.11° C 31% 1040.2 hPa - - - -
1788411323 21.11° C 31% 1040.1 hPa - - - -
1788409943 21.11° C 31% 1039.9 hPa - - - -
1788408563 21.67° C 31% 1039.8 hPa - - - -
1788407183 21.67° C 31% 1039.8 hPa - - - -
1788405803 21.67° C 30% 1040 hPa - - - -
1788404422 21.67° C 30% 1039.9 hPa - - - -
1788403042 21.67° C 30% 1040.1 hPa - - - -
1788401662 22.22° C 30% 1040.2 hPa - - - -
1788400282 22.22° C 30% 1040.2 hPa - - - -
1788398902 22.22° C 30% 1040.2 hPa - - - -
1788397521 22.22° C 30% 1040.2 hPa - - - -
1788396169 22.78° C 30% 1040.1 hPa - - - -
1788394761 22.78° C 31% 1040.2 hPa - - - -
1788393381 22.78° C 30% 1040.2 hPa - - - -

* Rain since midnight (hover to see other rain measurements)
** Current wind speed in m/s (hover to see current wind gust speed)